This is the latest recevied weather packets stored in our database for station/object KF0PEC-15. If no packets are shown the sender has not sent any weather packets the latest 10 day(s).
| Time | Temp. | Humidity | Pressure | Rain* | Wind** | Luminosity | Snow |
|---|---|---|---|---|---|---|---|
| 1778009105 | 3.89° C | 94% | 1017.8 hPa | 0 mm | - | 684 W/m² | - |
| 1778008605 | 3.89° C | 94% | 1017.9 hPa | 0 mm | - | 884 W/m² | - |
| 1778008015 | 3.89° C | 94% | 1018.1 hPa | 0 mm | - | 118 W/m² | - |
| 1778007505 | 3.89° C | 94% | 1018.1 hPa | 0 mm | - | 814 W/m² | - |
| 1778006932 | 3.89° C | 93% | 1018.4 hPa | 0 mm | - | 108 W/m² | - |
| 1778006400 | 3.33° C | 93% | 1018.5 hPa | 0 mm | - | 930 W/m² | - |
| 1778005830 | 3.33° C | 93% | 1018.9 hPa | 0 mm | - | 136 W/m² | - |
| 1778005250 | 3.33° C | 93% | 1019 hPa | 0 mm | - | 137 W/m² | - |
| 1778004730 | 3.33° C | 92% | 1019.1 hPa | 0 mm | - | 916 W/m² | - |
| 1778004242 | 3.89° C | 93% | 1019 hPa | 0 mm | - | 888 W/m² | - |
| 1778003745 | 3.89° C | 92% | 1019.1 hPa | 0 mm | - | 781 W/m² | - |
| 1778003200 | 3.33° C | 91% | 1019.3 hPa | 0 mm | - | 862 W/m² | - |
| 1778002600 | 3.33° C | 91% | 1019.6 hPa | 0 mm | - | 568 W/m² | - |
| 1778002005 | 3.33° C | 90% | 1019.7 hPa | 0 mm | - | 419 W/m² | - |
| 1778001480 | 3.33° C | 90% | 1019.8 hPa | 0 mm | - | 409 W/m² | - |
| 1778000990 | 3.33° C | 88% | 1019.8 hPa | 0 mm | - | 372 W/m² | - |
| 1778000452 | 3.33° C | 88% | 1019.8 hPa | 0 mm | - | 449 W/m² | - |
| 1777999865 | 3.33° C | 88% | 1019.6 hPa | 0 mm | - | 418 W/m² | - |
| 1777999270 | 3.33° C | 87% | 1019.4 hPa | 0 mm | - | 395 W/m² | - |
| 1777998735 | 3.33° C | 86% | 1019.4 hPa | 0 mm | - | 391 W/m² | - |
| 1777998220 | 3.89° C | 86% | 1019.4 hPa | 0 mm | - | 367 W/m² | - |
| 1777997661 | 3.89° C | 85% | 1019.4 hPa | 0 mm | - | 373 W/m² | - |
| 1777997182 | 3.89° C | 85% | 1019.3 hPa | 0 mm | - | 370 W/m² | - |
| 1777996620 | 3.89° C | 85% | 1019.2 hPa | 0 mm | - | 313 W/m² | - |
| 1777996090 | 3.89° C | 84% | 1019.1 hPa | 0 mm | - | 294 W/m² | - |
* Rain latest hour (hover to see other rain measurements)
** Current wind speed in m/s (hover to see current wind gust speed)